Home > Weather > Middlesbrough > Past weeks

Flag for United Kingdom Past Weather in Middlesbrough, England, United Kingdom — Yesterday and Last 2 Weeks

Now
57 °F

Scattered clouds.


Feels Like: 55 °F
Forecast: 43 / 59 °F
Wind: 9 mph from Northeast

Location: Tees-Side

Current Time: May 28, 2016 at 12:55:50 PM

Latest Report: May 28, 2016 at 12:20 PM


Visibility: N/A

Pressure: 30.04 "Hg

Humidity: 67%

Dew Point: 46 °F

Location of MiddlesbroughLocation

Past Weather in Middlesbrough — Graph

°F

Middlesbrough Temperature Yesterday

Maximum temperature yesterday: 61 °F (at 4:20 PM)
Minimum temperature yesterday: 50 °F (at 5:50 AM)
Average temperature yesterday: 55 °F

High & Low Weather Summary for the Past Weeks

 TemperatureHumidityPressure
High66 °F (May 17, 5:20 PM)100% (May 24, 5:50 AM)30.27 "Hg (May 24, 5:50 AM)
Low39 °F (May 24, 5:50 AM)43% (May 20, 4:20 PM)29.56 "Hg (May 18, 5:50 AM)
Average54 °F73%29.95 "Hg
* Reported May 13 11:20 AM — May 28 11:20 AM, Middlesbrough, Weather by CustomWeather, © 2016

Note: Actual official high and low records may vary slightly from our data, if they occured in-between our weather recording intervals... More about our weather records

Advertising

Middlesbrough Weather History for the Previous 24 Hours

Scroll right to see more
 ConditionsComfort  
Time TempWeatherWind HumidityBarometerVisibility
11:20 AM
Sat, May 28
57 °FScattered clouds.7 mph67%30.07 "HgN/A
10:50 AM55 °FBroken clouds.2 mph67%30.07 "HgN/A
10:20 AM57 °FPartly sunny.2 mph63%30.07 "HgN/A
9:50 AM55 °FPartly sunny.1 mph72%30.07 "HgN/A
9:20 AM54 °FPartly sunny.2 mph77%30.07 "HgN/A
8:50 AM54 °FPartly sunny.2 mph77%30.07 "HgN/A
8:20 AM54 °FPartly sunny.2 mph77%30.07 "HgN/A
7:50 AM52 °FPartly sunny.2 mph82%30.07 "HgN/A
7:20 AM52 °FPartly sunny.No wind88%30.07 "HgN/A
6:50 AM52 °FPartly sunny.1 mph88%30.07 "HgN/A
6:20 AM50 °FBroken clouds.No wind94%30.07 "HgN/A
5:50 AM50 °FScattered clouds.1 mph94%30.07 "HgN/A
9:20 PM
Fri, May 27
52 °FScattered clouds.7 mph82%30.09 "HgN/A
8:50 PM54 °FScattered clouds.6 mph77%30.09 "HgN/A
8:20 PM54 °FPassing clouds.8 mph77%30.09 "HgN/A
7:50 PM55 °FScattered clouds.9 mph77%30.09 "HgN/A
7:20 PM55 °FScattered clouds.9 mph77%30.09 "HgN/A
6:50 PM55 °FScattered clouds.12 mph77%30.09 "HgN/A
6:20 PM57 °FScattered clouds.12 mph72%30.09 "HgN/A
5:50 PM57 °FScattered clouds.10 mph77%30.07 "HgN/A
5:20 PM57 °FScattered clouds.10 mph77%30.07 "HgN/A
4:50 PM59 °FScattered clouds.8 mph68%30.07 "HgN/A
4:20 PM61 °FScattered clouds.8 mph68%30.09 "HgN/A
3:50 PM59 °FPassing clouds.7 mph72%30.09 "HgN/A
3:20 PM59 °FScattered clouds.7 mph72%30.09 "HgN/A
2:50 PM59 °FScattered clouds.7 mph72%30.09 "HgN/A
2:20 PM59 °FScattered clouds.9 mph72%30.09 "HgN/A
1:50 PM57 °FScattered clouds.9 mph77%30.09 "HgN/A
1:20 PM57 °FPartly sunny.6 mph72%30.09 "HgN/A
12:50 PM57 °FPartly sunny.6 mph72%30.09 "HgN/A
12:20 PM55 °FPartly sunny.6 mph77%30.09 "HgN/A
Weather by CustomWeather, © 2016

See weather overviewHow to use our weather pages